Weather History for KF05 - July, 2013

Change the Weather History Date:

Sunday, July 7, 2013

  Actual Average (KLTS) Record (KLTS)
Temperature  
Mean Temperature 88 °F -  
Max Temperature 100 °F 93 °F 109 °F (1998)
Min Temperature 76 °F 70 °F 64 °F (2004)
Cooling Degree Days 23    
Growing Degree Days 38 (Base 50)    
Moisture  
Dew Point 55 °F    
Average Humidity 32    
Maximum Humidity 49    
Minimum Humidity 20    
Precipitation  
Precipitation 0.00 in - - ()
Sea Level Pressure  
Sea Level Pressure 29.96 in    
Wind  
Wind Speed 10 mph (SSE)    
Max Wind Speed 16 mph    
Max Gust Speed 21 mph    
Visibility 10 miles    
Events      
Averages and records for this station are not official NWS values.
T = Trace of Precipitation, MM = Missing Value Source: NWS Daily Summary

Daily Weather History Graph

Daily Weather History Graph

Search for Another Location

Airport or City:

Trip Planner

Search our weather history database for the weather conditions in past years. The results will help you decide how hot, cold, wet, or windy it might be!

Date:

Astronomy

Jul. 07, 2013 Rise Set
Actual Time 6:31 AM CDT 8:52 PM CDT
Civil Twilight 6:02 AM CDT 9:21 PM CDT
Nautical Twilight 5:27 AM CDT 9:56 PM CDT
Astronomical Twilight 4:48 AM CDT 10:35 PM CDT
Moon 6:06 AM CDT (7/7) 8:20 PM CDT (7/7)
Length of Visible Light 15h 18m
Length of Day
14h 20m
Waning Crescent, 0% of the Moon is Illuminated
Jul 7
Waning Crescent
Jul 8
New
Jul 15
First Quarter
Jul 22
Full
Jul 29
Last Quarter

Hourly Weather History & Observations

Time (CDT) Temp. Heat Index Dew Point Humidity Pressure Visibility Wind Dir Wind Speed Gust Speed Precip Events Conditions
12:15 AM 87.3 °F - 51.3 °F 29% 29.93 in 10.0 mi SE 15.0 mph - N/A   Clear
12:35 AM 87.4 °F - 50.9 °F 28% 29.93 in 10.0 mi SE 15.0 mph - N/A   Clear
12:55 AM 87.1 °F - 50.9 °F 29% 29.93 in 10.0 mi SE 15.0 mph 20.7 mph N/A   Clear
1:15 AM 86.9 °F - 50.9 °F 29% 29.93 in 10.0 mi SE 16.1 mph - N/A   Clear
1:35 AM 86.2 °F - 51.1 °F 30% 29.93 in 10.0 mi SE 10.4 mph - N/A   Clear
1:55 AM 85.3 °F - 51.1 °F 31% 29.93 in 10.0 mi SE 12.7 mph - N/A   Clear
2:15 AM 84.9 °F - 51.1 °F 31% 29.93 in 10.0 mi SE 10.4 mph - N/A   Clear
2:35 AM 84.7 °F - 51.3 °F 31% 29.93 in 10.0 mi SE 10.4 mph - N/A   Clear
2:55 AM 84.0 °F - 51.6 °F 33% 29.94 in 10.0 mi SE 9.2 mph - N/A   Clear
3:15 AM 82.8 °F - 52.3 °F 35% 29.93 in 10.0 mi SE 9.2 mph - N/A   Clear
3:35 AM 81.7 °F - 52.9 °F 37% 29.93 in 10.0 mi SE 8.1 mph - N/A   Clear
3:55 AM 80.6 °F 80.3 °F 53.4 °F 39% 29.93 in 10.0 mi SE 6.9 mph - N/A   Clear
4:15 AM 79.7 °F - 53.6 °F 40% 29.94 in 10.0 mi SE 6.9 mph - N/A   Clear
4:35 AM 79.3 °F - 53.8 °F 41% 29.93 in 10.0 mi SE 8.1 mph - N/A   Clear
4:55 AM 79.2 °F - 54.1 °F 42% 29.93 in 10.0 mi SE 8.1 mph - N/A   Clear
5:15 AM 78.6 °F - 54.5 °F 43% 29.93 in 10.0 mi SE 6.9 mph - N/A   Clear
5:35 AM 78.1 °F - 54.7 °F 44% 29.93 in 10.0 mi SE 6.9 mph - N/A   Clear
5:55 AM 77.9 °F - 55.0 °F 45% 29.94 in 10.0 mi SE 5.8 mph - N/A   Clear
6:15 AM 77.0 °F - 55.4 °F 47% 29.95 in 10.0 mi SE 4.6 mph - N/A   Clear
6:35 AM 76.6 °F - 55.4 °F 48% 29.96 in 10.0 mi SE 5.8 mph - N/A   Clear
6:55 AM 76.3 °F - 55.6 °F 49% 29.97 in 10.0 mi SE 3.5 mph - N/A   Clear
7:15 AM 76.1 °F - 55.8 °F 49% 29.97 in 10.0 mi Calm Calm - N/A   Clear
7:35 AM 76.6 °F - 55.9 °F 49% 29.98 in 10.0 mi Calm Calm - N/A   Clear
7:55 AM 77.4 °F - 56.3 °F 48% 29.99 in 10.0 mi Calm Calm - N/A   Clear
8:15 AM 78.8 °F - 56.7 °F 46% 29.99 in 10.0 mi South 3.5 mph - N/A   Clear
8:35 AM 80.6 °F 80.8 °F 57.4 °F 45% 30.00 in 10.0 mi SE 5.8 mph - N/A   Clear
8:55 AM 82.0 °F 82.0 °F 58.1 °F 44% 30.00 in 10.0 mi South 9.2 mph - N/A   Clear
9:15 AM 83.5 °F 83.2 °F 58.6 °F 43% 30.00 in 10.0 mi South 10.4 mph - N/A   Clear
9:35 AM 85.3 °F 84.8 °F 58.8 °F 41% 30.00 in 10.0 mi South 13.8 mph - N/A   Clear
9:55 AM 86.9 °F 86.1 °F 58.5 °F 38% 30.01 in 10.0 mi SSW 11.5 mph - N/A   Clear
10:15 AM 88.2 °F 86.9 °F 57.6 °F 35% 30.00 in 10.0 mi South 11.5 mph - N/A   Clear
10:35 AM 88.9 °F 87.5 °F 57.2 °F 34% 30.00 in 10.0 mi SSW 9.2 mph - N/A   Clear
10:55 AM - - - N/A% 30.00 in - South 10.4 mph - N/A   Unknown
11:15 AM 90.9 °F 89.4 °F 57.2 °F 32% 30.00 in 10.0 mi SSW 10.4 mph - N/A   Clear
11:35 AM 91.8 °F 90.0 °F 56.5 °F 30% 30.00 in 10.0 mi South 9.2 mph - N/A   Clear
11:55 AM 92.3 °F 90.5 °F 56.1 °F 29% 30.00 in 10.0 mi SSW 10.4 mph 17.3 mph N/A   Clear
12:37 PM 93.2 °F 91.3 °F 55.4 °F 28% 29.99 in 10.0 mi SW 10.4 mph - N/A   Clear
12:57 PM 95.0 °F 93.0 °F 55.4 °F 26% 29.98 in 10.0 mi SW 9.2 mph 16.1 mph N/A   Clear
1:15 PM 95.9 °F 94.2 °F 56.3 °F 26% 29.98 in 10.0 mi SSE 5.8 mph - N/A   Clear
1:35 PM 96.1 °F 94.8 °F 56.8 °F 27% 29.97 in 10.0 mi SW 6.9 mph - N/A   Clear
1:55 PM 95.9 °F 94.6 °F 56.8 °F 27% 29.97 in 10.0 mi SSW 8.1 mph - N/A   Clear
2:15 PM 95.7 °F 94.3 °F 56.8 °F 27% 29.96 in 10.0 mi SE 10.4 mph - N/A   Scattered Clouds
2:35 PM 98.4 °F 96.9 °F 55.2 °F 24% 29.96 in 10.0 mi SE 13.8 mph 17.3 mph N/A   Clear
3:15 PM 99.5 °F 98.0 °F 55.4 °F 23% 29.95 in 10.0 mi SSE 11.5 mph 20.7 mph N/A   Clear
3:35 PM 99.3 °F 97.8 °F 55.6 °F 23% 29.94 in 10.0 mi SSW 11.5 mph 17.3 mph N/A   Clear
3:55 PM 99.7 °F 98.3 °F 55.6 °F 23% 29.94 in 10.0 mi SSE 11.5 mph 16.1 mph N/A   Scattered Clouds
4:15 PM 100.2 °F 99.0 °F 55.6 °F 23% 29.94 in 10.0 mi SE 8.1 mph 16.1 mph N/A   Scattered Clouds
4:35 PM 99.0 °F 97.3 °F 55.6 °F 23% 29.94 in 10.0 mi South 4.6 mph 9.2 mph N/A   Scattered Clouds
4:55 PM 98.6 °F 96.8 °F 54.9 °F 23% 29.93 in 10.0 mi SE 12.7 mph 16.1 mph N/A   Clear
5:15 PM 99.0 °F 96.9 °F 53.4 °F 22% 29.93 in 10.0 mi ESE 10.4 mph 19.6 mph N/A   Clear
5:35 PM 99.5 °F - 52.5 °F 21% 29.93 in 10.0 mi SSE 12.7 mph 19.6 mph N/A   Clear
5:55 PM 100.2 °F - 52.3 °F 20% 29.92 in 10.0 mi SE 13.8 mph 18.4 mph N/A   Clear
6:15 PM 99.7 °F 97.4 °F 53.1 °F 21% 29.92 in 10.0 mi SE 10.4 mph 18.4 mph N/A   Clear
6:35 PM 98.8 °F 96.6 °F 53.2 °F 22% 29.92 in 10.0 mi SSE 11.5 mph 17.3 mph N/A   Scattered Clouds
6:55 PM 99.1 °F - 52.9 °F 21% 29.92 in 10.0 mi SSE 13.8 mph - N/A   Scattered Clouds
7:15 PM 98.2 °F - 52.2 °F 21% 29.92 in 10.0 mi SE 16.1 mph 20.7 mph N/A   Clear
7:35 PM 97.5 °F - 52.5 °F 22% 29.93 in 10.0 mi SSE 15.0 mph - N/A   Clear
7:55 PM 96.8 °F 94.7 °F 54.0 °F 24% 29.93 in 10.0 mi SE 13.8 mph - N/A   Clear
8:15 PM 95.5 °F 93.4 °F 54.1 °F 25% 29.94 in 10.0 mi SE 12.7 mph - N/A   Clear
8:35 PM 94.5 °F 92.1 °F 54.0 °F 25% 29.94 in 10.0 mi SE 15.0 mph - N/A   Clear
8:55 PM 93.2 °F 90.8 °F 54.0 °F 26% 29.95 in 10.0 mi SE 12.7 mph - N/A   Clear
9:35 PM 91.0 °F 88.7 °F 54.1 °F 28% 29.96 in 10.0 mi SE 9.2 mph - N/A   Clear
9:55 PM 89.8 °F 87.7 °F 54.5 °F 30% 29.97 in 10.0 mi ESE 8.1 mph - N/A   Clear
10:15 PM 88.3 °F 86.3 °F 54.3 °F 31% 29.97 in 10.0 mi ESE 8.1 mph - N/A   Clear
10:35 PM 87.3 °F 85.5 °F 54.5 °F 33% 29.98 in 10.0 mi SE 9.2 mph - N/A   Clear
10:55 PM 86.4 °F 84.7 °F 54.5 °F 34% 29.98 in 10.0 mi SE 8.1 mph - N/A   Clear
11:15 PM 85.8 °F 84.2 °F 54.5 °F 34% 29.99 in 10.0 mi SE 9.2 mph - N/A   Clear
11:35 PM 85.6 °F 84.1 °F 55.2 °F 35% 29.98 in 10.0 mi SE 9.2 mph - N/A   Clear
11:55 PM 85.5 °F 84.1 °F 55.8 °F 36% 29.99 in 10.0 mi SE 8.1 mph - N/A   Clear